Location: Ferchesar
(52.6477°N, 12.4298°E)
Time: 07:03:09
(UTC+01:00)

Tiros 1 - Pass Details

Date: 10 December 2021
Orbit: 629 x 664 km, 48.4° (Epoch: 25 January)

Event Time Altitude Azimuth Distance (km) Brightness Sun altitude
Rises 18:58:49 0° 259° (W) 2,921 11.8 -26.4°
Reaches altitude 10° 19:01:10 10° 255° (WSW) 2,017 10.6 -26.7°
Enters shadow 19:04:56 46° 212° (SSW) 856 7.9 -27.3°
